This is the latest recevied weather packets stored in our database for station/object KC5TIL. If no packets are shown the sender has not sent any weather packets the latest 10 day(s).
| Time | Temp. | Humidity | Pressure | Rain* | Wind** | Luminosity | Snow |
|---|---|---|---|---|---|---|---|
| 1778115738 | 16.67° C | 83% | 1016.3 hPa | 0 mm | - | 6 W/m² | - |
| 1778115436 | 16.67° C | 87% | 1016.1 hPa | 0 mm | - | 10 W/m² | - |
| 1778115132 | 16.11° C | 87% | 1016.3 hPa | 0 mm | - | 13 W/m² | - |
| 1778114829 | 16.11° C | 87% | 1016 hPa | 0 mm | - | 16 W/m² | - |
| 1778114527 | 16.67° C | 86% | 1016 hPa | 0 mm | - | 23 W/m² | - |
| 1778114223 | 16.67° C | 86% | 1016.1 hPa | 0 mm | - | 32 W/m² | - |
| 1778113918 | 16.67° C | 86% | 1016 hPa | 0 mm | - | 33 W/m² | - |
| 1778113614 | 16.67° C | 86% | 1016.1 hPa | 0 mm | - | 40 W/m² | - |
| 1778113310 | 16.67° C | 86% | 1015.9 hPa | 0 mm | - | 49 W/m² | - |
| 1778113007 | 16.67° C | 86% | 1015.9 hPa | 0 mm | - | 59 W/m² | - |
| 1778112705 | 16.67° C | 86% | 1015.9 hPa | 0 mm | - | 75 W/m² | - |
| 1778112401 | 16.11° C | 85% | 1015.8 hPa | 0 mm | - | 68 W/m² | - |
| 1778112096 | 16.11° C | 86% | 1015.8 hPa | 0 mm | - | 55 W/m² | - |
| 1778111794 | 16.11° C | 86% | 1015.7 hPa | 0 mm | - | 49 W/m² | - |
| 1778111494 | 16.11° C | 86% | 1015.7 hPa | 0 mm | - | 64 W/m² | - |
| 1778111192 | 16.11° C | 85% | 1015.7 hPa | 0 mm | - | 76 W/m² | - |
| 1778110889 | 16.11° C | 85% | 1015.7 hPa | 0 mm | - | 85 W/m² | - |
| 1778110585 | 16.11° C | 86% | 1015.5 hPa | 0 mm | - | 88 W/m² | - |
| 1778110283 | 16.11° C | 86% | 1015.4 hPa | 0 mm | - | 103 W/m² | - |
| 1778109979 | 16.11° C | 86% | 1015.5 hPa | 0 mm | - | 107 W/m² | - |
| 1778109674 | 16.11° C | 85% | 1015.3 hPa | 0 mm | - | 108 W/m² | - |
| 1778109372 | 16.11° C | 83% | 1015.4 hPa | 0 mm | - | 88 W/m² | - |
| 1778109070 | 16.11° C | 85% | 1015.5 hPa | 0 mm | - | 101 W/m² | - |
| 1778108766 | 16.11° C | 86% | 1015.4 hPa | 0 mm | - | 127 W/m² | - |
| 1778108463 | 15.56° C | 87% | 1015.1 hPa | 0 mm | - | 158 W/m² | - |
* Rain latest hour (hover to see other rain measurements)
** Current wind speed in m/s (hover to see current wind gust speed)